RYR61LJ LEPA-LEZL

Flight info

Callsign RYR61LJ
Flight time 1h 15m
Altitude 37000
Route BAVER DCT GERVU DCT ALT DCT RESTU DCT TOSGA DCT ROLAS DCT UNTOS DCT RIXUR DCT MGA M744 MAR
Aircraft B738/M-SDE2E3FGHIRWXY/LB1

Departure

Time 2026-04-25 10:29
Airport Palma de Mallorca Airport (LEPA)

Arrival

Time 2026-04-25 11:44
Airport Seville Airport (LEZL)
Time Latitude Longitude Altitude Speed Heading
2026-04-25 10:03 39.54950 2.73767 31 ft 0 kts 240°
2026-04-25 10:17 39.54952 2.73772 33 ft 2 kts 240°
2026-04-25 10:17 39.54962 2.73793 31 ft 3 kts 240°
2026-04-25 10:17 39.54972 2.73815 32 ft 3 kts 240°
2026-04-25 10:17 39.54982 2.73838 30 ft 3 kts 240°
2026-04-25 10:18 39.54990 2.73856 32 ft 3 kts 228°
2026-04-25 10:18 39.55003 2.73869 31 ft 3 kts 180°
2026-04-25 10:18 39.55021 2.73864 32 ft 3 kts 150°
2026-04-25 10:18 39.55030 2.73857 29 ft 1 kts 148°
2026-04-25 10:19 39.55032 2.73855 29 ft 0 kts 148°
2026-04-25 10:21 39.55028 2.73858 30 ft 2 kts 148°
2026-04-25 10:21 39.54997 2.73883 30 ft 8 kts 149°
2026-04-25 10:21 39.54934 2.73932 32 ft 13 kts 148°
2026-04-25 10:21 39.54866 2.73986 32 ft 8 kts 152°
2026-04-25 10:22 39.54807 2.73975 30 ft 10 kts 224°
2026-04-25 10:22 39.54766 2.73919 33 ft 7 kts 197°
2026-04-25 10:22 39.54717 2.73933 33 ft 7 kts 187°
2026-04-25 10:22 39.54674 2.73884 33 ft 10 kts 237°
2026-04-25 10:23 39.54621 2.73770 34 ft 19 kts 239°
2026-04-25 10:23 39.54556 2.73686 33 ft 14 kts 190°
2026-04-25 10:23 39.54495 2.73717 34 ft 9 kts 149°
2026-04-25 10:23 39.54483 2.73725 34 ft 0 kts 149°
2026-04-25 10:27 39.54478 2.73729 34 ft 3 kts 149°
2026-04-25 10:28 39.54431 2.73765 33 ft 9 kts 149°
2026-04-25 10:28 39.54427 2.73815 32 ft 6 kts 59°
2026-04-25 10:28 39.54430 2.73822 32 ft 2 kts 59°
2026-04-25 10:28 39.54533 2.74038 33 ft 63 kts 58°
2026-04-25 10:29 39.54887 2.74786 27 ft 129 kts 58°
2026-04-25 10:29 39.55446 2.75951 233 ft 164 kts 60°
2026-04-25 10:29 39.56045 2.77256 893 ft 171 kts 62°
2026-04-25 10:29 39.56641 2.78590 1699 ft 171 kts 62°
2026-04-25 10:30 39.57258 2.79950 2158 ft 185 kts 60°
2026-04-25 10:30 39.57721 2.80959 2302 ft 200 kts 60°
2026-04-25 10:30 39.58698 2.83072 2773 ft 214 kts 60°
2026-04-25 10:30 39.59491 2.84754 3360 ft 220 kts 59°
2026-04-25 10:31 39.60271 2.86457 4053 ft 219 kts 59°
2026-04-25 10:31 39.61046 2.88153 4711 ft 220 kts 59°
2026-04-25 10:31 39.61829 2.89863 5365 ft 221 kts 59°
2026-04-25 10:31 39.62782 2.91432 5971 ft 224 kts 33°
2026-04-25 10:32 39.64276 2.91910 6561 ft 229 kts 352°
2026-04-25 10:32 39.65706 2.90977 7047 ft 239 kts 311°
2026-04-25 10:32 39.66603 2.89167 7669 ft 241 kts 298°
2026-04-25 10:32 39.67198 2.87114 8247 ft 245 kts 286°
2026-04-25 10:33 39.67595 2.84969 8904 ft 246 kts 283°
2026-04-25 10:33 39.67937 2.82781 9537 ft 248 kts 282°
2026-04-25 10:33 39.68235 2.80548 10135 ft 252 kts 279°
2026-04-25 10:33 39.68447 2.78272 10727 ft 256 kts 276°
2026-04-25 10:34 39.68547 2.75957 11364 ft 258 kts 272°
2026-04-25 10:34 39.68690 2.73601 11739 ft 271 kts 290°
2026-04-25 10:34 39.69718 2.71501 11932 ft 286 kts 313°
2026-04-25 10:34 39.70853 2.69257 12095 ft 311 kts 294°
2026-04-25 10:35 39.71682 2.66552 12265 ft 334 kts 292°
2026-04-25 10:35 39.72548 2.63704 12471 ft 352 kts 293°
2026-04-25 10:35 39.73480 2.60732 13058 ft 358 kts 294°
2026-04-25 10:35 39.74446 2.57732 13746 ft 362 kts 294°
2026-04-25 10:36 39.75436 2.54712 14388 ft 365 kts 294°
2026-04-25 10:36 39.76445 2.51662 15023 ft 369 kts 294°
2026-04-25 10:36 39.77482 2.48543 15683 ft 373 kts 294°
2026-04-25 10:36 39.78515 2.45435 16325 ft 376 kts 294°
2026-04-25 10:37 39.79542 2.42343 16959 ft 380 kts 294°
2026-04-25 10:37 39.80594 2.39171 17561 ft 384 kts 294°
2026-04-25 10:37 39.81559 2.35911 18157 ft 390 kts 283°
2026-04-25 10:37 39.81689 2.32387 18697 ft 394 kts 261°
2026-04-25 10:38 39.80886 2.28992 19306 ft 395 kts 242°
2026-04-25 10:38 39.79379 2.26001 19916 ft 396 kts 234°
2026-04-25 10:38 39.77743 2.23106 20446 ft 399 kts 233°
2026-04-25 10:38 39.76069 2.20202 20959 ft 403 kts 232°
2026-04-25 10:39 39.74379 2.17277 21495 ft 406 kts 232°
2026-04-25 10:39 39.72685 2.14329 22034 ft 408 kts 233°
2026-04-25 10:39 39.70990 2.11361 22573 ft 411 kts 233°
2026-04-25 10:39 39.69284 2.08360 23078 ft 414 kts 233°
2026-04-25 10:40 39.68152 2.06363 23413 ft 416 kts 233°
2026-04-25 10:40 39.65851 2.02299 24022 ft 419 kts 233°
2026-04-25 10:40 39.64120 1.99240 24453 ft 421 kts 233°
2026-04-25 10:40 39.62970 1.97207 24746 ft 423 kts 233°
2026-04-25 10:41 39.60633 1.93083 25300 ft 426 kts 233°
2026-04-25 10:41 39.58875 1.89983 25696 ft 428 kts 233°
2026-04-25 10:41 39.57105 1.86866 26093 ft 430 kts 233°
2026-04-25 10:41 39.55326 1.83737 26465 ft 433 kts 232°
2026-04-25 10:42 39.53529 1.80580 26785 ft 437 kts 233°
2026-04-25 10:42 39.51723 1.77409 27211 ft 437 kts 232°
2026-04-25 10:42 39.49914 1.74236 27606 ft 439 kts 233°
2026-04-25 10:42 39.48094 1.71048 27960 ft 441 kts 233°
2026-04-25 10:43 39.46265 1.67846 28324 ft 443 kts 233°
2026-04-25 10:43 39.44428 1.64635 28669 ft 445 kts 233°
2026-04-25 10:43 39.42581 1.61408 29014 ft 447 kts 233°
2026-04-25 10:43 39.40725 1.58170 29358 ft 449 kts 233°
2026-04-25 10:44 39.38860 1.54919 29692 ft 451 kts 233°
2026-04-25 10:44 39.36987 1.51657 30014 ft 453 kts 233°
2026-04-25 10:44 39.35104 1.48381 30277 ft 455 kts 233°
2026-04-25 10:44 39.33209 1.45089 30511 ft 458 kts 233°
2026-04-25 10:45 39.31305 1.41784 30803 ft 458 kts 233°
2026-04-25 10:45 39.29437 1.38544 31272 ft 454 kts 232°
2026-04-25 10:45 39.27562 1.35294 31770 ft 449 kts 233°
2026-04-25 10:45 39.25697 1.32067 32174 ft 448 kts 232°
2026-04-25 10:46 39.23838 1.28852 32526 ft 447 kts 232°
2026-04-25 10:46 39.21986 1.25652 32919 ft 444 kts 232°
2026-04-25 10:46 39.20141 1.22468 33285 ft 443 kts 232°
2026-04-25 10:46 39.18303 1.19300 33700 ft 440 kts 232°
2026-04-25 10:47 39.16476 1.16154 34083 ft 438 kts 233°
2026-04-25 10:47 39.14621 1.12964 34268 ft 440 kts 232°
2026-04-25 10:47 39.12803 1.09838 34417 ft 442 kts 232°
2026-04-25 10:47 39.10960 1.06675 34737 ft 440 kts 232°
2026-04-25 10:48 39.09130 1.03534 35071 ft 438 kts 232°
2026-04-25 10:48 39.07301 1.00400 35301 ft 438 kts 232°
2026-04-25 10:48 39.05466 0.97259 35492 ft 439 kts 232°
2026-04-25 10:48 39.03634 0.94125 35723 ft 439 kts 232°
2026-04-25 10:49 39.01801 0.90993 35987 ft 437 kts 232°
2026-04-25 10:49 39.00565 0.88883 36175 ft 437 kts 232°
2026-04-25 10:49 38.98145 0.84755 36469 ft 437 kts 232°
2026-04-25 10:49 38.96317 0.81639 36681 ft 437 kts 232°
2026-04-25 10:50 38.94489 0.78527 36926 ft 436 kts 232°
2026-04-25 10:50 38.92665 0.75423 37141 ft 435 kts 231°
2026-04-25 10:50 38.90839 0.72320 37100 ft 435 kts 231°
2026-04-25 10:51 38.87373 0.65988 37100 ft 434 kts 244°
2026-04-25 10:51 38.85221 0.58798 37129 ft 430 kts 248°
2026-04-25 10:52 38.83069 0.51671 37121 ft 427 kts 246°
2026-04-25 10:52 38.80392 0.44943 37147 ft 424 kts 235°
2026-04-25 10:53 38.77082 0.38645 37149 ft 432 kts 234°
2026-04-25 10:53 38.73701 0.32228 37134 ft 436 kts 234°
2026-04-25 10:54 38.70320 0.25750 37132 ft 439 kts 235°
2026-04-25 10:54 38.66935 0.19243 37128 ft 439 kts 235°
2026-04-25 10:55 38.63565 0.12768 37109 ft 433 kts 234°
2026-04-25 10:55 38.60264 0.06440 37126 ft 426 kts 234°
2026-04-25 10:56 38.57505 0.01163 37131 ft 427 kts 234°
2026-04-25 10:56 38.54206 -0.05132 37146 ft 433 kts 234°
2026-04-25 10:57 38.50821 -0.11580 37149 ft 441 kts 234°
2026-04-25 10:57 38.47383 -0.18118 37133 ft 445 kts 234°
2026-04-25 10:58 38.43923 -0.24687 37134 ft 447 kts 234°
2026-04-25 10:58 38.40447 -0.31272 37137 ft 448 kts 234°
2026-04-25 10:59 38.36969 -0.37846 37135 ft 447 kts 234°
2026-04-25 10:59 38.33500 -0.44393 37118 ft 445 kts 234°
2026-04-25 11:00 38.30044 -0.50902 37120 ft 442 kts 234°
2026-04-25 11:00 38.26630 -0.57412 37137 ft 444 kts 238°
2026-04-25 11:01 38.23953 -0.64518 37126 ft 447 kts 244°
2026-04-25 11:01 38.21440 -0.71744 37123 ft 445 kts 244°
2026-04-25 11:02 38.18909 -0.78901 37131 ft 443 kts 243°
2026-04-25 11:02 38.16353 -0.86003 37146 ft 441 kts 243°
2026-04-25 11:03 38.13790 -0.93074 37150 ft 441 kts 243°
2026-04-25 11:03 38.11221 -1.00141 37159 ft 441 kts 243°
2026-04-25 11:04 38.08644 -1.07218 37146 ft 442 kts 243°
2026-04-25 11:04 38.06081 -1.14244 37145 ft 441 kts 243°
2026-04-25 11:05 38.03719 -1.20702 37147 ft 441 kts 244°
2026-04-25 11:05 38.01131 -1.27765 37167 ft 444 kts 244°
2026-04-25 11:06 37.98510 -1.34898 37142 ft 448 kts 243°
2026-04-25 11:06 37.95882 -1.42039 37153 ft 447 kts 243°
2026-04-25 11:07 37.93250 -1.49172 37153 ft 446 kts 243°
2026-04-25 11:07 37.90620 -1.56282 37149 ft 446 kts 243°
2026-04-25 11:08 37.87978 -1.63383 37147 ft 446 kts 243°
2026-04-25 11:08 37.85324 -1.70482 37162 ft 446 kts 243°
2026-04-25 11:09 37.82662 -1.77590 37149 ft 448 kts 243°
2026-04-25 11:09 37.79988 -1.84718 37154 ft 449 kts 243°
2026-04-25 11:10 37.77305 -1.91860 37145 ft 450 kts 243°
2026-04-25 11:10 37.74607 -1.99020 37140 ft 452 kts 243°
2026-04-25 11:11 37.71898 -2.06194 37137 ft 453 kts 243°
2026-04-25 11:11 37.69177 -2.13385 37140 ft 454 kts 243°
2026-04-25 11:12 37.66444 -2.20590 37129 ft 456 kts 243°
2026-04-25 11:12 37.63701 -2.27807 37132 ft 456 kts 243°
2026-04-25 11:13 37.60947 -2.35032 37125 ft 457 kts 244°
2026-04-25 11:13 37.58189 -2.42257 37118 ft 457 kts 244°
2026-04-25 11:14 37.55428 -2.49479 37110 ft 457 kts 244°
2026-04-25 11:14 37.53242 -2.56883 37068 ft 443 kts 259°
2026-04-25 11:14 37.52887 -2.60699 36709 ft 437 kts 268°
2026-04-25 11:15 37.52817 -2.64524 36191 ft 437 kts 268°
2026-04-25 11:15 37.52750 -2.68364 35571 ft 440 kts 268°
2026-04-25 11:15 37.52676 -2.72230 35013 ft 442 kts 268°
2026-04-25 11:15 37.52593 -2.76092 34605 ft 440 kts 267°
2026-04-25 11:16 37.52407 -2.83756 33845 ft 435 kts 267°
2026-04-25 11:16 37.52307 -2.87556 33445 ft 432 kts 267°
2026-04-25 11:16 37.52205 -2.91323 33081 ft 429 kts 266°
2026-04-25 11:17 37.52103 -2.95059 32731 ft 425 kts 266°
2026-04-25 11:17 37.52001 -2.98768 32365 ft 422 kts 266°
2026-04-25 11:17 37.51898 -3.02448 32004 ft 419 kts 266°
2026-04-25 11:17 37.51795 -3.06105 31645 ft 417 kts 267°
2026-04-25 11:18 37.51690 -3.09743 31265 ft 415 kts 267°
2026-04-25 11:18 37.51586 -3.13363 30920 ft 412 kts 266°
2026-04-25 11:18 37.51481 -3.16956 30607 ft 409 kts 266°
2026-04-25 11:18 37.51376 -3.20520 30286 ft 406 kts 267°
2026-04-25 11:19 37.51270 -3.24057 29926 ft 403 kts 267°
2026-04-25 11:19 37.51165 -3.27577 29519 ft 401 kts 267°
2026-04-25 11:19 37.51059 -3.31072 29112 ft 399 kts 267°
2026-04-25 11:19 37.50952 -3.34551 28708 ft 396 kts 267°
2026-04-25 11:20 37.50846 -3.38011 28318 ft 394 kts 267°
2026-04-25 11:20 37.50738 -3.41450 27943 ft 392 kts 267°
2026-04-25 11:20 37.50630 -3.44871 27561 ft 390 kts 267°
2026-04-25 11:20 37.50522 -3.48274 27180 ft 388 kts 267°
2026-04-25 11:21 37.50415 -3.51613 26823 ft 386 kts 267°
2026-04-25 11:21 37.50305 -3.55027 26471 ft 384 kts 267°
2026-04-25 11:21 37.50197 -3.58327 26117 ft 382 kts 267°
2026-04-25 11:21 37.50087 -3.61659 25760 ft 380 kts 267°
2026-04-25 11:22 37.49977 -3.64978 25416 ft 378 kts 267°
2026-04-25 11:22 37.49903 -3.67209 25191 ft 377 kts 267°
2026-04-25 11:22 37.49756 -3.71563 24753 ft 375 kts 267°
2026-04-25 11:22 37.49645 -3.74835 24424 ft 373 kts 267°
2026-04-25 11:23 37.49533 -3.78087 24106 ft 371 kts 267°
2026-04-25 11:23 37.49421 -3.81331 23775 ft 370 kts 267°
2026-04-25 11:23 37.49308 -3.84555 23413 ft 368 kts 267°
2026-04-25 11:23 37.49196 -3.87765 23059 ft 366 kts 267°
2026-04-25 11:24 37.49083 -3.90953 22710 ft 363 kts 267°
2026-04-25 11:24 37.48970 -3.94120 22357 ft 361 kts 267°
2026-04-25 11:24 37.48857 -3.97269 22011 ft 359 kts 267°
2026-04-25 11:24 37.48743 -4.00406 21678 ft 357 kts 267°
2026-04-25 11:25 37.48630 -4.03517 21335 ft 355 kts 267°
2026-04-25 11:25 37.48516 -4.06618 21006 ft 353 kts 267°
2026-04-25 11:25 37.48402 -4.09695 20687 ft 351 kts 267°
2026-04-25 11:25 37.48288 -4.12762 20362 ft 350 kts 267°
2026-04-25 11:26 37.48173 -4.15810 20052 ft 348 kts 267°
2026-04-25 11:26 37.48059 -4.18844 19741 ft 346 kts 267°
2026-04-25 11:26 37.47944 -4.21862 19453 ft 344 kts 267°
2026-04-25 11:26 37.47829 -4.24867 19140 ft 343 kts 267°
2026-04-25 11:27 37.47714 -4.27857 18840 ft 341 kts 267°
2026-04-25 11:27 37.47599 -4.30828 18549 ft 339 kts 267°
2026-04-25 11:27 37.47483 -4.33791 18236 ft 338 kts 267°
2026-04-25 11:27 37.47406 -4.35745 18004 ft 337 kts 267°
2026-04-25 11:28 37.47252 -4.39667 17568 ft 334 kts 267°
2026-04-25 11:28 37.47136 -4.42577 17241 ft 332 kts 267°
2026-04-25 11:28 37.47020 -4.45468 16929 ft 330 kts 267°
2026-04-25 11:28 37.46904 -4.48344 16615 ft 328 kts 267°
2026-04-25 11:29 37.46788 -4.51212 16304 ft 327 kts 267°
2026-04-25 11:29 37.46672 -4.54057 16001 ft 325 kts 267°
2026-04-25 11:29 37.46556 -4.56890 15698 ft 323 kts 267°
2026-04-25 11:29 37.46441 -4.59706 15393 ft 322 kts 267°
2026-04-25 11:30 37.46324 -4.62512 15089 ft 320 kts 267°
2026-04-25 11:30 37.46208 -4.65303 14799 ft 318 kts 267°
2026-04-25 11:30 37.46091 -4.68079 14521 ft 317 kts 267°
2026-04-25 11:30 37.45975 -4.70839 14230 ft 315 kts 266°
2026-04-25 11:31 37.45858 -4.73585 13953 ft 314 kts 266°
2026-04-25 11:31 37.45742 -4.76316 13651 ft 310 kts 266°
2026-04-25 11:31 37.45626 -4.79014 13222 ft 308 kts 266°
2026-04-25 11:31 37.45510 -4.81700 12751 ft 307 kts 266°
2026-04-25 11:32 37.45394 -4.84376 12323 ft 305 kts 266°
2026-04-25 11:32 37.45279 -4.87033 11906 ft 303 kts 266°
2026-04-25 11:32 37.45163 -4.89672 11503 ft 301 kts 266°
2026-04-25 11:32 37.45048 -4.92297 11098 ft 299 kts 266°
2026-04-25 11:33 37.44932 -4.94902 10704 ft 297 kts 266°
2026-04-25 11:33 37.44818 -4.97487 10359 ft 294 kts 266°
2026-04-25 11:33 37.44704 -5.00033 10109 ft 290 kts 266°
2026-04-25 11:33 37.44590 -5.02573 9768 ft 291 kts 266°
2026-04-25 11:34 37.44476 -5.05106 9476 ft 289 kts 266°
2026-04-25 11:34 37.44362 -5.07625 9186 ft 288 kts 266°
2026-04-25 11:34 37.44248 -5.10133 8903 ft 286 kts 266°
2026-04-25 11:34 37.44134 -5.12624 8626 ft 284 kts 266°
2026-04-25 11:35 37.44020 -5.15103 8354 ft 283 kts 266°
2026-04-25 11:35 37.43906 -5.17576 8095 ft 283 kts 266°
2026-04-25 11:35 37.43791 -5.20053 7792 ft 284 kts 266°
2026-04-25 11:35 37.43676 -5.22523 7520 ft 282 kts 266°
2026-04-25 11:36 37.43561 -5.24981 7248 ft 281 kts 266°
2026-04-25 11:36 37.43446 -5.27429 6981 ft 280 kts 266°
2026-04-25 11:36 37.43331 -5.29867 6721 ft 279 kts 266°
2026-04-25 11:36 37.43216 -5.32300 6426 ft 278 kts 266°
2026-04-25 11:37 37.43100 -5.34725 6153 ft 277 kts 266°
2026-04-25 11:37 37.42985 -5.37138 5859 ft 276 kts 266°
2026-04-25 11:37 37.42870 -5.39543 5555 ft 276 kts 266°
2026-04-25 11:37 37.42754 -5.41950 5269 ft 276 kts 266°
2026-04-25 11:38 37.42639 -5.44327 4997 ft 276 kts 266°
2026-04-25 11:38 37.42521 -5.46746 4697 ft 278 kts 266°
2026-04-25 11:38 37.42402 -5.49179 4406 ft 278 kts 266°
2026-04-25 11:38 37.42284 -5.51597 4138 ft 276 kts 266°
2026-04-25 11:39 37.42168 -5.53974 4025 ft 268 kts 266°
2026-04-25 11:39 37.42054 -5.56269 3840 ft 263 kts 266°
2026-04-25 11:39 37.41940 -5.58571 3574 ft 261 kts 266°
2026-04-25 11:39 37.41840 -5.60829 3421 ft 255 kts 268°
2026-04-25 11:40 37.41869 -5.63003 3342 ft 242 kts 271°
2026-04-25 11:40 37.41897 -5.65063 3234 ft 229 kts 270°
2026-04-25 11:40 37.41895 -5.67027 3034 ft 222 kts 269°
2026-04-25 11:40 37.41889 -5.68323 2896 ft 216 kts 269°
2026-04-25 11:41 37.41878 -5.70167 2752 ft 204 kts 269°
2026-04-25 11:41 37.41868 -5.71921 2524 ft 198 kts 270°
2026-04-25 11:41 37.41860 -5.73630 2291 ft 192 kts 270°
2026-04-25 11:41 37.41852 -5.75273 2029 ft 183 kts 269°
2026-04-25 11:42 37.41844 -5.76824 1789 ft 172 kts 269°
2026-04-25 11:42 37.41837 -5.78264 1576 ft 164 kts 270°
2026-04-25 11:42 37.41832 -5.79677 1369 ft 160 kts 270°
2026-04-25 11:42 37.41821 -5.81078 1125 ft 159 kts 270°
2026-04-25 11:43 37.41813 -5.82452 946 ft 156 kts 270°
2026-04-25 11:43 37.41809 -5.83802 746 ft 158 kts 271°
2026-04-25 11:43 37.41799 -5.85186 533 ft 158 kts 271°
2026-04-25 11:43 37.41799 -5.86569 302 ft 156 kts 271°
2026-04-25 11:44 37.41795 -5.87922 115 ft 150 kts 272°
2026-04-25 11:44 37.41795 -5.89113 96 ft 117 kts 270°
2026-04-25 11:44 37.41792 -5.89945 94 ft 74 kts 269°
2026-04-25 11:44 37.41800 -5.90277 95 ft 12 kts 307°
2026-04-25 11:45 37.41869 -5.90303 93 ft 10 kts 359°
2026-04-25 11:45 37.41939 -5.90304 94 ft 7 kts 360°
2026-04-25 11:45 37.41951 -5.90304 95 ft 3 kts 360°
2026-04-25 11:45 37.41993 -5.90304 94 ft 8 kts 360°
2026-04-25 11:46 37.42044 -5.90267 94 ft 11 kts 70°
2026-04-25 11:46 37.42047 -5.90155 94 ft 15 kts 90°
2026-04-25 11:46 37.42048 -5.90029 94 ft 10 kts 87°
2026-04-25 11:46 37.42081 -5.89975 95 ft 9 kts 37°
2026-04-25 11:47 37.42129 -5.89936 98 ft 5 kts 15°
2026-04-25 11:47 37.42161 -5.89937 94 ft 5 kts
2026-04-25 11:47 37.42199 -5.89897 94 ft 8 kts 48°
2026-04-25 11:47 37.42240 -5.89894 93 ft 7 kts 346°
2026-04-25 11:48 37.42261 -5.89902 94 ft 0 kts 343°